• en Suisse
  • Liste des pays
  • À 7 jours
  • Température de l'eau
  • Carte satellitaire
  • Carte météo
  • Widgets météo
  • user-avatar
    Se connecter

    Météo par heure à Ouina

    Ce jour, 22 Novembre, Mercredi

    Heure Température Précipitation Vent Pression Humidité
    00:00 +20°C° 0 mm 0 m/s 739 mmHg 97%
    01:00 +20°C° 0 mm 0 m/s 739 mmHg 97%
    02:00 +20°C° 0 mm 0 m/s 739 mmHg 97%
    03:00 +20°C° 0 mm 0 m/s 738 mmHg 97%
    04:00 +20°C° 0 mm 0 m/s 739 mmHg 96%
    05:00 +20°C° 0 mm 0 m/s 739 mmHg 96%
    06:00 +20°C° 0 mm 0 m/s 739 mmHg 96%
    07:00 +23°C° 0 mm 0 m/s 739 mmHg 85%
    08:00 +25°C° 0 mm 0 m/s 740 mmHg 75%
    09:00 +28°C° 0 mm 0 m/s 740 mmHg 65%
    10:00 +29°C° 0 mm 0 m/s 740 mmHg 59%
    11:00 +32°C° 0 mm 1 m/s 739 mmHg 53%
    12:00 +34°C° 0 mm 1 m/s 739 mmHg 47%
    13:00 +33°C° 0,2 mm 1 m/s 738 mmHg 50%
    14:00 +33°C° 0,2 mm 1 m/s 738 mmHg 54%
    15:00 +32°C° 0,2 mm 1 m/s 737 mmHg 57%
    16:00 +29°C° 0,8 mm 1 m/s 738 mmHg 69%
    17:00 +27°C° 0,8 mm 1 m/s 738 mmHg 82%
    18:00 +22°C° 0,8 mm 0 m/s 738 mmHg 94%
    19:00 +22°C° 0,4 mm 0 m/s 739 mmHg 95%
    20:00 +22°C° 0,4 mm 0 m/s 740 mmHg 97%
    21:00 +21°C° 0,4 mm 0 m/s 740 mmHg 98%
    22:00 +21°C° 0,4 mm 0 m/s 740 mmHg 98%
    23:00 +21°C° 0,4 mm 0 m/s 740 mmHg 98%

    Demain, 23 Novembre, Jeudi

    Heure Température Précipitation Vent Pression Humidité
    00:00 +21°C° 0,4 mm 0 m/s 740 mmHg 98%
    01:00 +21°C° 0,1 mm 0 m/s 739 mmHg 99%
    02:00 +20°C° 0,1 mm 0 m/s 739 mmHg 99%
    03:00 +20°C° 0,1 mm 0 m/s 739 mmHg 99%
    04:00 +20°C° 0 mm 0 m/s 739 mmHg 99%
    05:00 +20°C° 0 mm 0 m/s 739 mmHg 99%
    06:00 +20°C° 0 mm 0 m/s 739 mmHg 99%
    07:00 +24°C° 0 mm 1 m/s 740 mmHg 90%
    08:00 +26°C° 0 mm 1 m/s 740 mmHg 82%
    09:00 +28°C° 0 mm 1 m/s 741 mmHg 73%
    10:00 +29°C° 0 mm 1 m/s 740 mmHg 63%
    11:00 +31°C° 0 mm 1 m/s 740 mmHg 53%
    12:00 +32°C° 0 mm 2 m/s 739 mmHg 44%
    13:00 +32°C° 0 mm 2 m/s 739 mmHg 44%
    14:00 +32°C° 0 mm 2 m/s 738 mmHg 45%
    15:00 +32°C° 0 mm 2 m/s 738 mmHg 45%
    16:00 +30°C° 0 mm 1 m/s 738 mmHg 55%
    17:00 +28°C° 0 mm 1 m/s 738 mmHg 64%
    18:00 +26°C° 0 mm 1 m/s 739 mmHg 74%
    19:00 +25°C° 0 mm 1 m/s 739 mmHg 79%
    20:00 +24°C° 0 mm 1 m/s 740 mmHg 84%
    21:00 +21°C° 0 mm 0 m/s 740 mmHg 90%
    22:00 +21°C° 0 mm 0 m/s 740 mmHg 91%
    23:00 +21°C° 0 mm 0 m/s 740 mmHg 93%

    Après-demain, 24 Novembre, Vendredi

    Heure Température Précipitation Vent Pression Humidité
    00:00 +20°C° 0 mm 0 m/s 740 mmHg 94%
    01:00 +20°C° 0 mm 0 m/s 740 mmHg 96%
    02:00 +20°C° 0 mm 0 m/s 739 mmHg 97%
    03:00 +19°C° 0 mm 0 m/s 739 mmHg 98%
    04:00 +19°C° 0 mm 0 m/s 739 mmHg 98%
    05:00 +19°C° 0 mm 0 m/s 739 mmHg 98%
    06:00 +19°C° 0 mm 0 m/s 740 mmHg 99%
    07:00 +23°C° 0 mm 1 m/s 740 mmHg 86%
    08:00 +26°C° 0 mm 1 m/s 741 mmHg 73%
    09:00 +28°C° 0 mm 1 m/s 741 mmHg 60%
    10:00 +30°C° 0 mm 1 m/s 741 mmHg 55%
    11:00 +31°C° 0 mm 2 m/s 740 mmHg 50%
    12:00 +32°C° 0 mm 2 m/s 740 mmHg 45%
    13:00 +32°C° 0 mm 2 m/s 739 mmHg 47%
    14:00 +32°C° 0 mm 2 m/s 738 mmHg 50%
    15:00 +31°C° 0 mm 2 m/s 738 mmHg 53%
    16:00 +29°C° 0 mm 1 m/s 738 mmHg 62%
    17:00 +27°C° 0 mm 1 m/s 739 mmHg 72%
    18:00 +25°C° 0 mm 1 m/s 739 mmHg 81%
    19:00 +24°C° 0 mm 1 m/s 740 mmHg 85%
    20:00 +23°C° 0 mm 1 m/s 741 mmHg 89%
    21:00 +22°C° 0 mm 1 m/s 741 mmHg 92%
    22:00 +20°C° 0 mm 0 m/s 741 mmHg 94%
    23:00 +19°C° 0 mm 0 m/s 741 mmHg 95%

    25 Novembre, Samedi

    Heure Température Précipitation Vent Pression Humidité
    00:00 +19°C° 0 mm 0 m/s 741 mmHg 97%
    01:00 +19°C° 0 mm 0 m/s 741 mmHg 97%
    02:00 +19°C° 0 mm 0 m/s 740 mmHg 97%
    03:00 +20°C° 0 mm 1 m/s 740 mmHg 98%
    04:00 +20°C° 0 mm 1 m/s 740 mmHg 98%
    05:00 +20°C° 0 mm 1 m/s 741 mmHg 98%
    06:00 +20°C° 0 mm 1 m/s 741 mmHg 98%
    07:00 +22°C° 0 mm 1 m/s 741 mmHg 84%
    08:00 +25°C° 0 mm 1 m/s 742 mmHg 71%
    09:00 +27°C° 0 mm 1 m/s 742 mmHg 57%
    10:00 +29°C° 0 mm 1 m/s 742 mmHg 52%
    11:00 +30°C° 0 mm 2 m/s 741 mmHg 47%
    12:00 +32°C° 0 mm 2 m/s 740 mmHg 42%
    13:00 +32°C° 0 mm 2 m/s 740 mmHg 44%
    14:00 +32°C° 0 mm 2 m/s 739 mmHg 46%
    15:00 +32°C° 0 mm 2 m/s 739 mmHg 47%
    16:00 +30°C° 0 mm 2 m/s 739 mmHg 55%
    17:00 +28°C° 0 mm 1 m/s 740 mmHg 63%
    18:00 +26°C° 0 mm 1 m/s 740 mmHg 71%
    19:00 +24°C° 0 mm 1 m/s 741 mmHg 76%
    20:00 +23°C° 0 mm 1 m/s 741 mmHg 81%
    21:00 +20°C° 0 mm 0 m/s 742 mmHg 85%
    22:00 +20°C° 0 mm 0 m/s 741 mmHg 87%
    23:00 +19°C° 0 mm 0 m/s 741 mmHg 88%

    26 Novembre, Dimanche

    Heure Température Précipitation Vent Pression Humidité
    00:00 +19°C° 0 mm 0 m/s 741 mmHg 90%
    01:00 +19°C° 0 mm 0 m/s 741 mmHg 90%
    02:00 +19°C° 0 mm 0 m/s 740 mmHg 91%
    03:00 +19°C° 0 mm 0 m/s 740 mmHg 91%
    04:00 +18°C° 0 mm 0 m/s 740 mmHg 91%
    05:00 +20°C° 0 mm 1 m/s 741 mmHg 92%
    06:00 +20°C° 0 mm 1 m/s 741 mmHg 92%
    07:00 +23°C° 0 mm 1 m/s 741 mmHg 83%
    08:00 +25°C° 0 mm 1 m/s 742 mmHg 74%
    09:00 +27°C° 0 mm 2 m/s 742 mmHg 65%
    10:00 +28°C° 0 mm 2 m/s 742 mmHg 63%
    11:00 +29°C° 0 mm 2 m/s 741 mmHg 62%
    12:00 +29°C° 0 mm 2 m/s 740 mmHg 61%
    13:00 +29°C° 0,1 mm 2 m/s 740 mmHg 62%
    14:00 +29°C° 0,1 mm 2 m/s 739 mmHg 63%
    15:00 +29°C° 0,1 mm 2 m/s 739 mmHg 65%
    16:00 +28°C° 0 mm 2 m/s 739 mmHg 72%
    17:00 +26°C° 0 mm 2 m/s 740 mmHg 78%
    18:00 +24°C° 0 mm 1 m/s 740 mmHg 85%
    19:00 +24°C° 0 mm 1 m/s 740 mmHg 88%
    20:00 +23°C° 0 mm 1 m/s 741 mmHg 91%
    21:00 +22°C° 0 mm 1 m/s 741 mmHg 94%
    22:00 +22°C° 0 mm 1 m/s 741 mmHg 96%
    23:00 +21°C° 0 mm 1 m/s 741 mmHg 97%

    27 Novembre, Lundi

    Heure Température Précipitation Vent Pression Humidité
    00:00 +21°C° 0 mm 1 m/s 741 mmHg 98%
    01:00 +21°C° 0 mm 1 m/s 740 mmHg 98%
    02:00 +21°C° 0 mm 1 m/s 740 mmHg 98%
    03:00 +20°C° 0 mm 1 m/s 740 mmHg 98%
    04:00 +20°C° 0 mm 1 m/s 740 mmHg 98%
    05:00 +20°C° 0 mm 1 m/s 740 mmHg 98%
    06:00 +20°C° 0 mm 1 m/s 741 mmHg 98%
    07:00 +22°C° 0 mm 1 m/s 741 mmHg 86%
    08:00 +25°C° 0 mm 1 m/s 741 mmHg 73%
    09:00 +27°C° 0 mm 1 m/s 742 mmHg 61%
    10:00 +28°C° 0 mm 2 m/s 741 mmHg 54%
    11:00 +30°C° 0 mm 2 m/s 740 mmHg 47%
    12:00 +31°C° 0 mm 2 m/s 740 mmHg 39%
    13:00 +32°C° 0 mm 2 m/s 739 mmHg 40%
    14:00 +32°C° 0 mm 2 m/s 738 mmHg 41%
    15:00 +32°C° 0 mm 2 m/s 738 mmHg 42%
    16:00 +29°C° 0 mm 1 m/s 738 mmHg 52%
    17:00 +27°C° 0 mm 1 m/s 739 mmHg 62%
    18:00 +25°C° 0 mm 1 m/s 739 mmHg 71%
    19:00 +24°C° 0 mm 1 m/s 740 mmHg 77%
    20:00 +21°C° 0 mm 0 m/s 740 mmHg 82%
    21:00 +20°C° 0 mm 0 m/s 741 mmHg 88%
    22:00 +20°C° 0 mm 0 m/s 741 mmHg 90%
    23:00 +19°C° 0 mm 0 m/s 740 mmHg 93%
    Voir plus